Location: ?p Thanh B�nh
(16.5833°N, 107.5333°E)
Time: 04:38:07
(UTC+00:00)

Cosmos 1484 Rocket - Pass Details

Date: 29 October 2020
Orbit: 504 x 560 km, 97.4° (Epoch: 29 November)

Event Time Altitude Azimuth Distance (km) Brightness Sun altitude
Rises 21:18:23 0° 7° (N) 2,635 6.3 -21.6°
Reaches altitude 10° 21:20:30 10° 5° (N) 1,739 5.3 -21.1°
Maximum altitude 21:24:12 68° 282° (WNW) 551 2.5 -20.2°
Drops below altitude 10° 21:27:52 10° 199° (SSW) 1,714 5.2 -19.3°
Sets 21:29:57 0° 196° (SSW) 2,594 6.2 -18.9°
